Simultaneous Nadir Overpasses (SNOs) Predictions

Prediction of SNOs between AQUA and NPP Satellite Orbit:

Table of predicted SNOs for the next 14.0 days since TLE Epoch: 6/22/2024
Index Date (AQUA) Time (AQUA) Lat,Lon (AQUA) SZA (AQUA ) Date (NPP) Time (NPP) Lat,Lon (NPP) SZA (NPP ) Distance(km) Time Diff (sec)
1 06/23/2024 17:18:54 -81.25, 24.14 115.14 06/23/2024 17:18:11 -81.25, 24.01 115.10 2.21 43
2 06/23/2024 18:08:15 81.26,-168.00 64.83 06/23/2024 18:08:54 81.26,-167.90 64.80 1.68 39
3 06/26/2024 05:22:30 81.24, 23.10 64.97 06/26/2024 05:21:26 81.24, 23.12 65.01 0.63 64
4 06/26/2024 06:11:51 -81.27,-168.73 115.11 06/26/2024 06:12:09 -81.26,-168.77 115.11 0.98 18
5 06/28/2024 18:15:26 81.26,-169.79 65.05 06/28/2024 18:15:24 81.26,-169.71 65.04 1.22 2
6 07/01/2024 06:19:00 -81.25,-170.75 114.77 07/01/2024 06:18:38 -81.25,-170.66 114.77 1.68 22
7 07/01/2024 07:08:20 81.27, -2.65 65.18 07/01/2024 07:09:21 81.27, -2.60 65.13 0.94 61
8 07/03/2024 18:22:32 81.26,-171.44 65.42 07/03/2024 18:21:52 81.26,-171.32 65.43 2.00 40



Historial Predications of SNOs between AQUA and NPP
